JA7KUB Weather Reports


time (UTC)temp
F
wind
direction
speed
knots
gust
knots
rain 1hr
in
rain 24hr
in
rain mn
in
humidity
%
barometer
mb
20260503030330 67 241 3.5 8.7 0.00 0.16 0.00 73 1020.7
20260503023330 66 269 2.6 7.8 0.00 0.16 0.00 74 1021.2
20260503020328 66 189 3.5 10.4 0.00 0.16 0.00 76 1021.9
20260503013329 64 82 2.6 5.2 0.00 0.16 0.00 79 1022.5
20260503010326 63 240 2.6 7.0 0.00 0.16 0.00 75 1023.6
20260503003326 63 295 0.9 6.1 0.00 0.16 0.00 69 1024.1
20260503000325 63 293 1.7 5.2 0.00 0.16 0.00 66 1024.4
20260502233344 62 231 0.9 2.6 0.00 0.16 0.00 68 1024.4
20260502230321 61 295 0.0 0.9 0.00 0.20 0.00 70 1024.3
20260502223341 57 96 0.0 0.0 0.00 0.20 0.00 80 1024.2
20260502213317 50 206 0.0 0.0 0.00 0.79 0.00 90 1024.7
20260502210316 47 217 0.0 0.9 0.00 1.10 0.00 90 1024.3
20260502203315 46 161 0.0 0.0 0.00 1.10 0.00 92 1023.9
20260502200353 45 161 0.0 0.0 0.00 1.54 0.00 92 1023.6
20260502193351 45 161 0.0 0.0 0.00 1.54 0.00 92 1023.3
20260502190328 44 161 0.0 0.0 0.00 1.57 0.00 91 1023.6
20260502183347 44 161 0.0 0.0 0.00 1.57 0.00 91 1023.5
20260502180324 44 161 0.0 0.9 0.00 1.57 0.00 91 1023.5
20260502170321 43 161 0.0 0.9 0.00 1.57 0.00 89 1023.6
20260502163321 44 99 0.0 0.0 0.00 1.57 0.00 88 1023.2
20260502160318 44 99 0.0 0.9 0.00 1.57 0.00 86 1023.3
20260502150352 48 308 0.0 2.6 0.00 1.57 0.31 79 1022.9
20260502130326 48 75 0.9 3.5 0.00 1.61 0.31 78 1022.7
20260502123326 48 73 0.0 0.0 0.00 1.61 0.31 78 1022.7
20260502120324 50 73 0.0 0.0 0.00 2.05 0.31 76 1022.6
20260502113324 51 72 0.0 0.0 0.00 2.05 0.31 70 1022.7
20260502110322 53 72 0.0 2.6 0.00 2.05 0.31 68 1022.2
20260502103321 55 94 0.0 0.9 0.00 2.05 0.31 65 1021.6
20260502100319 58 254 0.0 4.3 0.00 2.05 0.31 57 1021.0
20260502090317 61 319 3.5 9.6 0.00 2.09 0.31 51 1020.0
20260502070326 64 317 6.1 20.0 0.00 2.09 0.31 44 1017.8
20260502063326 63 267 11.3 26.9 0.00 2.09 0.31 43 1016.9
20260502060324 64 356 12.2 20.0 0.04 2.56 0.31 43 1016.8
20260502053325 64 297 7.0 18.2 0.08 2.56 0.31 44 1016.7
20260502050322 64 306 12.2 39.1 0.04 2.56 0.31 42 1016.2
20260502043341 63 298 7.0 19.1 0.00 2.52 0.30 48 1016.5
20260502040318 62 254 6.1 23.5 0.00 2.64 0.30 48 1016.8
20260502033318 63 309 13.0 25.2 0.08 2.64 0.30 48 1014.7